K5KTF-WX Weather Reports


time (UTC)temp
C
wind
direction
speed
KPH
gust
KPH
rain 1hr
cm
rain 24hr
cm
rain mn
cm
humidity
%
barometer
mb
20260510023038 25 0 0.0 1.6 0.00 0.00 0.00 75 1009.9
20260510021543 26 0 0.0 0.0 0.00 0.00 0.00 74 1009.6
20260510020040 26 0 0.0 3.2 0.00 0.00 0.00 72 1009.4
20260510014538 26 0 0.0 1.6 0.00 0.00 0.00 69 1009.2
20260510013038 27 157 0.0 6.4 0.00 0.00 0.00 67 1009.1
20260510011537 27 0 0.0 3.2 0.00 0.00 0.00 63 1009.0
20260510010036 28 0 0.0 4.8 0.00 0.00 0.00 59 1009.0
20260510004542 28 129 0.0 6.4 0.00 0.00 0.00 58 1008.9
20260510003039 29 0 0.0 4.8 0.00 0.00 0.00 57 1008.6
20260510001537 29 0 1.6 6.4 0.00 0.00 0.00 55 1008.6
20260510000038 30 134 0.0 8.0 0.00 0.00 0.00 53 1008.4
20260509234538 30 0 0.0 6.4 0.00 0.00 0.00 52 1008.3
20260509233037 31 88 0.0 9.7 0.00 0.00 0.00 50 1008.3
20260509231540 31 142 0.0 8.0 0.00 0.00 0.00 50 1008.2
20260509230038 31 163 1.6 11.3 0.00 0.00 0.00 48 1008.2
20260509224540 31 56 1.6 9.7 0.00 0.00 0.00 47 1008.2
20260509223038 32 0 0.0 3.2 0.00 0.00 0.00 49 1008.2
20260509221542 32 0 0.0 8.0 0.00 0.00 0.00 48 1008.2
20260509220041 32 124 1.6 8.0 0.00 0.00 0.00 51 1008.2
20260509214542 32 0 0.0 4.8 0.00 0.00 0.00 53 1008.4
20260509213038 32 92 1.6 8.0 0.00 0.00 0.00 52 1008.5
20260509211544 31 90 1.6 11.3 0.00 0.00 0.00 51 1008.7
20260509210038 31 102 3.2 11.3 0.00 0.00 0.00 53 1008.9
20260509204540 31 58 3.2 11.3 0.00 0.00 0.00 57 1009.1
20260509203058 31 65 3.2 12.9 0.00 0.00 0.00 50 1009.3
20260509201539 30 75 6.4 17.7 0.00 0.00 0.00 52 1009.7
20260509200047 32 0 0.0 0.0 0.00 0.00 0.00 52 1009.9
20260509194540 32 0 0.0 3.2 0.00 0.00 0.00 55 1009.7
20260509193037 32 0 0.0 1.6 0.00 0.00 0.00 50 1009.7
20260509191544 32 0 0.0 1.6 0.00 0.00 0.00 52 1009.7
20260509190038 31 0 0.0 0.0 0.00 0.00 0.00 57 1010.0
20260509184538 31 0 0.0 0.0 0.00 0.00 0.00 57 1010.4
20260509183038 30 0 0.0 1.6 0.00 0.00 0.00 59 1010.5
20260509181540 31 0 0.0 1.6 0.00 0.00 0.00 61 1010.6
20260509180037 30 0 0.0 1.6 0.00 0.00 0.00 66 1010.9
20260509174534 28 221 0.0 0.0 0.00 0.00 0.00 69 1011.1
20260509173040 30 0 0.0 1.6 0.00 0.00 0.00 67 1011.3
20260509171537 29 0 0.0 1.6 0.00 0.00 0.00 70 1011.7
20260509170037 28 0 0.0 1.6 0.00 0.00 0.00 74 1011.7
20260509164536 27 0 0.0 1.6 0.00 0.00 0.00 77 1011.6
20260509163040 26 9 0.0 3.2 0.00 0.00 0.00 82 1011.6
20260509161537 26 0 0.0 1.6 0.00 0.00 0.00 84 1011.7
20260509160039 24 0 0.0 8.0 0.00 0.00 0.00 87 1011.8
20260509154537 24 176 0.0 3.2 0.00 0.00 0.00 87 1011.9
20260509153038 25 0 0.0 3.2 0.00 0.00 0.00 86 1011.6
20260509151537 25 190 0.0 3.2 0.00 0.00 0.00 86 1011.2
20260509150041 26 0 0.0 1.6 0.00 0.00 0.00 83 1010.9
20260509144541 26 0 0.0 1.6 0.00 0.00 0.00 82 1011.1
20260509143038 26 0 0.0 1.6 0.00 0.00 0.00 82 1010.8
20260509141537 25 0 0.0 6.4 0.00 0.00 0.00 86 1010.7
20260509140038 24 219 1.6 8.0 0.00 0.00 0.00 87 1010.0
20260509134543 24 0 0.0 9.7 0.00 0.00 0.00 90 1010.1
20260509133040 23 0 0.0 3.2 0.00 0.00 0.00 92 1010.2
20260509131545 22 0 0.0 8.0 0.00 0.00 0.00 95 1010.6
20260509130053 22 0 0.0 0.0 0.00 0.00 0.00 98 1010.6
20260509124542 21 0 0.0 0.0 0.00 0.00 0.00 98 1011.0
20260509123038 21 0 0.0 0.0 0.00 0.00 0.00 98 1010.8
20260509121538 21 0 0.0 0.0 0.00 0.00 0.00 98 1010.7
20260509120039 21 0 0.0 0.0 0.00 0.00 0.00 98 1010.9
20260509114540 21 0 0.0 0.0 0.00 0.00 0.00 97 1011.1
20260509113041 21 0 0.0 0.0 0.00 0.00 0.00 98 1011.2
20260509111542 21 0 0.0 0.0 0.00 0.00 0.00 98 1011.8
20260509110039 21 0 0.0 0.0 0.00 0.00 0.00 97 1011.9
20260509104538 21 0 0.0 0.0 0.00 0.00 0.00 97 1011.7
20260509103037 21 0 0.0 0.0 0.00 0.00 0.00 97 1012.0
20260509101540 21 0 0.0 0.0 0.00 0.00 0.00 97 1011.8
20260509100036 21 0 0.0 0.0 0.00 0.00 0.00 97 1011.4
20260509094538 21 0 0.0 0.0 0.00 0.00 0.00 97 1010.9
20260509093038 21 0 0.0 0.0 0.00 0.00 0.00 97 1010.4
20260509091537 21 0 0.0 0.0 0.00 0.00 0.00 97 1010.3
20260509090037 21 0 0.0 0.0 0.00 0.00 0.00 97 1010.3
20260509084538 21 0 0.0 0.0 0.00 0.00 0.00 97 1010.5
20260509083041 21 0 0.0 0.0 0.00 0.00 0.00 97 1010.7
20260509081540 21 0 0.0 0.0 0.00 0.00 0.00 96 1010.7
20260509080041 21 0 0.0 0.0 0.00 0.00 0.00 96 1010.9
20260509074537 21 0 0.0 0.0 0.00 0.00 0.00 96 1010.8
20260509073041 21 0 0.0 0.0 0.00 0.00 0.00 96 1010.8
20260509071538 21 0 0.0 0.0 0.00 0.00 0.00 95 1010.9
20260509070041 21 0 0.0 0.0 0.00 0.00 0.00 95 1011.2
20260509064538 21 0 0.0 0.0 0.00 0.00 0.00 95 1010.8
20260509063037 21 0 0.0 0.0 0.00 0.00 0.00 95 1011.0
20260509061548 21 0 0.0 1.6 0.00 0.00 0.00 95 1011.0
20260509060050 21 0 0.0 1.6 0.00 0.00 0.00 95 1010.5
20260509054547 21 0 0.0 1.6 0.00 0.00 0.00 96 1010.7
20260509053039 21 0 0.0 3.2 0.00 0.00 0.00 96 1010.1
20260509051538 21 0 0.0 4.8 0.00 0.00 0.00 96 1009.4
20260509050054 21 0 0.0 3.2 0.00 0.00 0.00 95 1009.4
20260509044552 21 146 0.0 3.2 0.00 0.00 0.00 94 1009.4
20260509043038 21 0 0.0 3.2 0.00 0.00 0.00 93 1010.0
20260509041538 21 161 0.0 1.6 0.00 0.00 0.00 93 1010.3
20260509040040 21 0 0.0 4.8 0.00 0.00 0.00 93 1010.3
20260509034542 21 0 0.0 1.6 0.00 0.00 0.00 93 1010.2
20260509033041 21 0 0.0 1.6 0.00 0.00 0.00 93 1009.8
20260509031546 21 0 0.0 1.6 0.00 0.00 0.00 92 1009.7
20260509030042 21 0 0.0 0.0 0.00 0.00 0.00 91 1009.7
20260509024535 22 0 0.0 1.6 0.00 0.00 0.00 90 1009.7